Location: El Mouella
(16.4949°N, 9.1594°W)
Time: 15:14:24
(UTC+00:00)

Cosmos 1461 - Pass Details

Date: 02 June 2020
Orbit: 504 x 662 km, 65.0° (Epoch: 04 July)

Event Time Altitude Azimuth Distance (km) Brightness Sun altitude
Rises 19:57:48 0° 204° (SSW) 2,609 6.2 -11.9°
Reaches altitude 10° 19:59:55 10° 205° (SSW) 1,738 5.3 -12.4°
Maximum altitude 20:03:48 82° 291° (WNW) 538 2.8 -13.2°
Drops below altitude 10° 20:07:51 10° 21° (NNE) 1,815 5.6 -14.0°
Sets 20:10:07 0° 22° (NNE) 2,736 6.5 -14.5°
